TimeCDT,TemperatureF,Dew PointF,Humidity,Sea Level PressureIn,VisibilityMPH,Wind Direction,Wind SpeedMPH,Gust SpeedMPH,PrecipitationIn,Events,Conditions,WindDirDegrees,DateUTC
12:53 AM,75.9,71.1,85,29.89,10.0,Calm,Calm,-,N/A,,Clear,0,2013-10-05 05:53:00
1:53 AM,75.0,71.1,87,29.89,10.0,ESE,3.5,-,N/A,,Clear,110,2013-10-05 06:53:00
2:53 AM,75.0,71.1,87,29.89,10.0,ENE,4.6,-,N/A,,Clear,60,2013-10-05 07:53:00
3:53 AM,75.0,71.1,87,29.89,10.0,NNE,3.5,-,N/A,,Mostly Cloudy,20,2013-10-05 08:53:00
4:53 AM,75.0,71.1,87,29.87,10.0,SE,5.8,-,N/A,,Clear,130,2013-10-05 09:53:00
5:53 AM,75.0,71.1,87,29.86,10.0,Calm,Calm,-,N/A,,Partly Cloudy,0,2013-10-05 10:53:00
6:53 AM,77.0,71.1,82,29.87,10.0,North,5.8,-,N/A,,Overcast,350,2013-10-05 11:53:00
7:50 AM,73.4,68.0,83,29.91,10.0,NW,10.4,-,N/A,,Overcast,310,2013-10-05 12:50:00
7:53 AM,73.9,66.9,79,29.91,10.0,WNW,10.4,-,N/A,,Overcast,300,2013-10-05 12:53:00
8:12 AM,73.4,68.0,83,29.93,10.0,NW,10.4,-,0.01,,Overcast,320,2013-10-05 13:12:00
8:33 AM,71.6,66.2,83,29.95,10.0,WNW,10.4,-,0.01,Rain,Light Rain,290,2013-10-05 13:33:00
8:44 AM,69.8,66.2,88,29.95,10.0,WNW,8.1,-,0.01,Rain,Light Rain,300,2013-10-05 13:44:00
8:53 AM,70.0,66.0,87,29.94,8.0,WNW,9.2,-,0.01,Rain,Light Rain,300,2013-10-05 13:53:00
9:05 AM,69.8,66.2,88,29.96,1.8,Calm,Calm,-,0.04,Rain,Rain,0,2013-10-05 14:05:00
9:13 AM,68.0,68.0,100,29.96,0.2,West,3.5,-,0.23,Fog-Rain,Heavy Rain,280,2013-10-05 14:13:00
9:18 AM,69.8,68.0,94,29.95,0.5,West,5.8,-,0.33,Fog-Rain,Heavy Rain,280,2013-10-05 14:18:00
9:31 AM,66.2,66.2,100,29.97,0.8,WSW,17.3,23.0,0.61,Rain,Heavy Rain,240,2013-10-05 14:31:00
9:39 AM,64.4,62.6,94,29.97,2.5,WSW,19.6,-,0.69,Rain,Light Rain,250,2013-10-05 14:39:00
9:41 AM,62.6,62.6,100,29.97,6.0,WSW,15.0,-,0.69,Rain,Light Rain,250,2013-10-05 14:41:00
9:53 AM,63.0,61.0,93,29.97,10.0,West,18.4,23.0,0.69,Rain,Light Rain,260,2013-10-05 14:53:00
10:53 AM,60.1,59.0,96,29.99,9.0,West,13.8,-,0.03,Rain,Light Rain,260,2013-10-05 15:53:00
11:53 AM,57.9,55.0,90,30.02,10.0,West,15.0,-,0.01,,Overcast,260,2013-10-05 16:53:00
12:53 PM,57.9,55.0,90,30.02,10.0,WNW,10.4,-,N/A,,Overcast,290,2013-10-05 17:53:00
1:53 PM,57.0,52.0,83,30.02,10.0,NW,13.8,-,N/A,,Overcast,310,2013-10-05 18:53:00
2:16 PM,55.4,51.8,88,30.03,2.0,West,17.3,24.2,N/A,,Overcast,270,2013-10-05 19:16:00
2:31 PM,55.4,51.8,88,30.03,4.0,West,15.0,-,N/A,,Overcast,270,2013-10-05 19:31:00
2:40 PM,55.4,51.8,88,30.02,9.0,West,11.5,-,N/A,,Overcast,280,2013-10-05 19:40:00
2:53 PM,55.0,51.1,86,30.03,10.0,West,13.8,-,N/A,,Overcast,260,2013-10-05 19:53:00
3:18 PM,53.6,51.8,94,30.04,3.0,West,10.4,27.6,0.05,Rain-Thunderstorm,Thunderstorms and Rain,270,2013-10-05 20:18:00
3:24 PM,53.6,51.8,94,30.04,1.8,West,6.9,-,0.08,Rain-Thunderstorm,Heavy Thunderstorms and Rain,270,2013-10-05 20:24:00
3:36 PM,53.6,51.8,94,30.01,1.2,NW,9.2,-,0.18,Rain-Thunderstorm,Heavy Thunderstorms and Rain,310,2013-10-05 20:36:00
3:40 PM,53.6,51.8,94,30.02,2.0,West,6.9,-,0.19,Rain-Thunderstorm,Light Thunderstorms and Rain,280,2013-10-05 20:40:00
3:53 PM,53.1,51.1,93,30.02,10.0,West,12.7,-,0.19,Rain,Light Rain,260,2013-10-05 20:53:00
4:00 PM,53.6,51.8,94,30.02,10.0,West,12.7,-,0.00,Rain,Light Rain,260,2013-10-05 21:00:00
4:53 PM,53.1,50.0,89,30.01,10.0,West,6.9,-,0.06,,Overcast,270,2013-10-05 21:53:00
5:03 PM,53.6,51.8,94,30.02,10.0,WSW,4.6,-,N/A,,Overcast,250,2013-10-05 22:03:00
5:26 PM,53.6,51.8,94,30.01,10.0,West,6.9,-,N/A,,Overcast,260,2013-10-05 22:26:00
5:48 PM,53.6,48.2,82,30.04,10.0,West,12.7,-,N/A,,Overcast,280,2013-10-05 22:48:00
5:53 PM,54.0,48.9,83,30.04,10.0,West,16.1,-,N/A,,Overcast,270,2013-10-05 22:53:00
6:53 PM,53.1,50.0,89,30.03,8.0,West,5.8,-,0.03,Rain,Light Rain,260,2013-10-05 23:53:00
7:53 PM,53.1,50.0,89,30.05,10.0,WSW,5.8,-,0.01,,Clear,250,2013-10-06 00:53:00
8:53 PM,53.1,50.0,89,30.04,10.0,WSW,4.6,-,N/A,,Clear,240,2013-10-06 01:53:00
9:53 PM,53.1,50.0,89,30.06,10.0,West,4.6,-,N/A,,Partly Cloudy,270,2013-10-06 02:53:00
10:53 PM,52.0,50.0,93,30.07,10.0,SSW,4.6,-,N/A,,Clear,210,2013-10-06 03:53:00
11:53 PM,51.1,48.9,92,30.05,10.0,Calm,Calm,-,N/A,,Clear,0,2013-10-06 04:53:00